FW1583 Weather Reports


time (UTC)temp
C
wind
direction
speed
KPH
gust
KPH
rain 1hr
cm
rain 24hr
cm
rain mn
cm
humidity
%
barometer
mb
20260510083442 12 270 0.0 0.0 0.00 0.03 0.00 96 1013.9
20260510082439 11 270 0.0 0.0 0.00 0.03 0.00 96 1013.9
20260510081457 11 157 0.0 0.0 0.00 0.03 0.00 96 1013.6
20260510075540 11 157 0.0 0.0 0.00 0.03 0.00 95 1013.5
20260510074638 11 157 0.0 0.0 0.00 0.03 0.00 95 1013.4
20260510073639 11 157 0.0 0.0 0.00 0.03 0.00 94 1013.5
20260510072641 11 157 0.0 0.0 0.00 0.03 0.00 93 1013.3
20260510071740 11 157 0.0 0.0 0.00 0.03 0.00 93 1013.2
20260510070741 11 157 0.0 0.0 0.00 0.03 0.00 92 1013.1
20260510064740 12 157 0.0 0.0 0.00 0.03 0.00 92 1012.8
20260510063740 12 157 0.0 0.0 0.00 0.03 0.00 92 1012.9
20260510063640 12 157 0.0 0.0 0.00 0.03 0.00 92 1012.9
20260510062739 12 157 0.0 0.0 0.00 0.03 0.00 92 1012.9
20260510061740 12 157 0.0 0.0 0.00 0.03 0.00 91 1012.8
20260510060839 12 157 0.0 0.0 0.00 0.03 0.00 90 1012.9
20260510055842 12 157 0.0 0.0 0.00 0.03 0.00 90 1013.0
20260510054841 13 157 0.0 0.0 0.00 0.03 0.00 91 1012.9
20260510053839 13 157 0.0 0.0 0.00 0.03 0.00 91 1012.8
20260510052840 13 157 0.0 0.0 0.00 0.03 0.00 91 1013.0
20260510050941 13 157 0.0 0.0 0.00 0.03 0.00 88 1012.9
20260510045940 13 157 0.0 0.0 0.00 0.03 0.00 88 1012.9
20260510044940 13 157 0.0 0.0 0.00 0.03 0.00 87 1012.9
20260510044039 13 157 0.0 0.0 0.00 0.03 0.00 87 1012.9
20260510042039 13 157 0.0 0.0 0.00 0.03 0.00 86 1013.0
20260510041056 13 157 0.0 0.0 0.00 0.03 0.00 86 1013.0
20260510040140 13 157 0.0 0.0 0.00 0.03 0.00 86 1012.9
20260510035125 13 157 0.0 0.0 0.00 0.03 0.03 84 1012.8
20260510034126 14 157 0.0 0.0 0.00 0.03 0.03 83 1012.8
20260510034027 14 157 0.0 0.0 0.00 0.03 0.03 83 1012.8
20260510032026 15 157 0.0 0.0 0.00 0.03 0.03 82 1012.8
20260510031124 15 157 0.0 0.0 0.00 0.03 0.03 81 1012.7
20260510030126 15 157 0.0 0.0 0.00 0.03 0.03 80 1012.8
20260510025126 15 157 0.0 0.0 0.00 0.03 0.03 79 1012.7
20260510024126 15 157 0.0 0.0 0.00 0.03 0.03 77 1012.8
20260510023224 16 157 0.0 0.0 0.00 0.03 0.03 77 1012.6
20260510022225 16 157 0.0 0.0 0.00 0.03 0.03 76 1012.6
20260510021226 16 157 0.0 0.0 0.00 0.03 0.03 76 1012.5
20260510021126 16 157 0.0 0.0 0.00 0.03 0.03 76 1012.4
20260510020126 16 157 0.0 0.0 0.00 0.03 0.03 76 1012.4
20260510015125 16 157 0.0 0.0 0.00 0.03 0.03 75 1012.2
20260510014224 16 157 0.0 0.0 0.00 0.03 0.03 74 1012.1
20260510014141 16 157 0.0 0.0 0.00 0.03 0.03 74 1012.1
20260510013226 16 157 0.0 0.0 0.00 0.03 0.03 74 1012.0
20260510012226 16 157 0.0 0.0 0.00 0.03 0.03 72 1011.8
20260510012127 16 157 0.0 0.0 0.00 0.03 0.03 72 1011.8
20260510011127 16 157 0.0 0.0 0.00 0.03 0.03 71 1011.6
20260510010126 16 157 0.0 0.0 0.00 0.03 0.03 70 1011.5
20260510004126 17 157 0.0 0.0 0.00 0.03 0.03 66 1011.4
20260510003225 17 157 0.0 0.0 0.00 0.03 0.03 65 1011.3
20260510002324 18 157 0.0 0.0 0.00 0.03 0.03 64 1011.2
20260510001328 18 157 0.0 0.0 0.00 0.03 0.03 63 1011.1
20260510000326 19 157 0.0 0.0 0.00 0.03 0.03 62 1010.9
20260509235326 20 157 0.0 0.0 0.00 0.03 0.03 61 1011.0
20260509234327 20 157 0.0 0.0 0.00 0.03 0.03 60 1010.8
20260509233326 20 157 0.0 0.0 0.00 0.03 0.03 58 1010.8
20260509231325 21 180 0.0 0.0 0.00 0.03 0.03 56 1010.7
20260509230325 22 180 0.0 0.0 0.00 0.03 0.03 55 1010.7
20260509225325 22 247 0.0 0.0 0.00 0.03 0.03 54 1010.6
20260509224326 22 112 0.0 0.0 0.00 0.03 0.03 55 1010.7
20260509223327 22 202 0.0 0.0 0.00 0.03 0.03 56 1010.6
20260509221326 23 180 0.0 0.0 0.00 0.03 0.03 57 1010.8
20260509220424 23 158 0.0 0.0 0.00 0.03 0.03 52 1010.8
20260509215427 23 112 0.0 0.0 0.00 0.03 0.03 51 1010.7
20260509214426 23 70 0.0 0.0 0.00 0.03 0.03 49 1010.6
20260509213524 25 292 0.0 0.0 0.00 0.03 0.03 47 1010.7
20260509212525 26 292 0.0 0.0 0.00 0.03 0.03 46 1010.6
20260509211526 26 135 0.0 0.0 0.00 0.03 0.03 46 1010.5
20260509210526 26 153 0.0 4.8 0.00 0.03 0.03 47 1010.6
20260509205525 26 191 0.0 3.2 0.00 0.03 0.03 47 1010.4
20260509204525 26 69 0.0 3.2 0.00 0.03 0.03 48 1010.5
20260509203624 25 244 0.0 1.6 0.00 0.03 0.03 49 1010.3
20260509202626 25 22 0.0 0.0 0.00 0.03 0.03 50 1010.4
20260509201624 24 202 0.0 3.2 0.00 0.03 0.03 52 1010.4
20260509200625 23 204 1.6 6.4 0.00 0.03 0.03 56 1010.6
20260509194725 22 202 0.0 0.0 0.00 0.03 0.03 62 1011.1
20260509193726 20 169 0.0 0.0 0.00 0.03 0.03 62 1011.3
20260509192825 20 181 0.0 3.2 0.00 0.03 0.03 65 1011.5
20260509191826 19 287 0.0 4.8 0.03 0.03 0.03 64 1011.8
20260509190826 19 250 3.2 8.0 0.03 0.03 0.03 67 1011.7
20260509185924 18 292 1.6 8.0 0.03 0.03 0.03 68 1011.8
20260509185024 18 292 0.0 4.8 0.03 0.03 0.03 72 1011.7
20260509184025 18 22 0.0 0.0 0.03 0.03 0.03 70 1012.0
20260509183027 19 315 0.0 1.6 0.03 0.03 0.03 61 1012.2
20260509182027 20 202 0.0 1.6 0.00 0.00 0.00 57 1012.4
20260509181025 20 288 3.2 6.4 0.00 0.00 0.00 56 1012.5
20260509180025 20 275 0.0 4.8 0.00 0.00 0.00 56 1012.6
20260509173128 22 279 1.6 4.8 0.00 0.00 0.00 51 1012.5
20260509172125 22 117 1.6 6.4 0.00 0.00 0.00 53 1012.7
20260509171126 21 99 0.0 1.6 0.00 0.00 0.00 56 1012.7
20260509170126 21 200 1.6 4.8 0.00 0.00 0.00 58 1012.9
20260509165224 20 173 1.6 3.2 0.00 0.00 0.00 59 1012.9
20260509164228 20 337 0.0 0.0 0.00 0.00 0.00 58 1012.9
20260509163225 20 67 0.0 0.0 0.00 0.00 0.00 58 1013.0
20260509162226 20 247 0.0 0.0 0.00 0.00 0.00 57 1012.9
20260509160325 20 108 1.6 3.2 0.00 0.00 0.00 61 1013.0
20260509155327 20 269 1.6 4.8 0.00 0.00 0.00 59 1013.2
20260509152426 20 50 0.0 3.2 0.00 0.00 0.00 60 1013.4
20260509151426 20 84 1.6 4.8 0.00 0.00 0.00 60 1013.5
20260509150525 19 211 0.0 3.2 0.00 0.00 0.00 62 1013.5
20260509144526 17 155 3.2 6.4 0.00 0.00 0.00 64 1013.9
20260509143527 17 184 1.6 3.2 0.00 0.00 0.00 66 1014.0
20260509142525 16 255 0.0 3.2 0.00 0.00 0.00 68 1014.3
20260509141527 16 225 0.0 0.0 0.00 0.00 0.00 69 1014.2
20260509140625 15 230 0.0 1.6 0.00 0.00 0.00 70 1014.3
20260509135645 15 157 0.0 0.0 0.00 0.00 0.00 70 1014.2
20260509134725 15 133 0.0 1.6 0.00 0.00 0.00 70 1014.3
20260509133725 15 337 0.0 0.0 0.00 0.00 0.00 70 1014.4
20260509132724 15 271 0.0 1.6 0.00 0.00 0.00 69 1014.4
20260509131726 15 16 0.0 0.0 0.00 0.00 0.00 70 1014.2
20260509130726 14 194 0.0 0.0 0.00 0.00 0.00 69 1014.4
20260509125825 14 146 0.0 3.2 0.00 0.00 0.00 68 1014.3
20260509124828 14 112 0.0 1.6 0.00 0.00 0.00 68 1014.4
20260509123825 14 166 0.0 0.0 0.00 0.00 0.00 68 1014.3
20260509122924 14 150 0.0 0.0 0.00 0.00 0.00 67 1014.4
20260509121941 14 168 0.0 4.8 0.00 0.00 0.00 66 1014.3
20260509120925 14 240 0.0 3.2 0.00 0.00 0.00 66 1014.2
20260509115927 14 148 0.0 1.6 0.00 0.00 0.00 66 1014.2
20260509114926 13 253 0.0 6.4 0.00 0.00 0.00 65 1014.2
20260509113927 13 90 0.0 0.0 0.00 0.00 0.00 64 1014.3
20260509112926 13 141 0.0 0.0 0.00 0.00 0.00 64 1014.4
20260509111927 13 108 0.0 3.2 0.00 0.00 0.00 64 1014.0
20260509110925 13 181 0.0 3.2 0.00 0.00 0.00 63 1014.0
20260509105926 13 168 0.0 1.6 0.00 0.00 0.00 62 1014.0
20260509104925 13 156 0.0 0.0 0.00 0.00 0.00 60 1014.0
20260509102924 13 135 0.0 0.0 0.00 0.00 0.00 58 1013.7
20260509102824 13 135 0.0 0.0 0.00 0.00 0.00 58 1013.7
20260509101824 13 202 0.0 0.0 0.00 0.00 0.00 57 1013.7
20260509100826 13 135 0.0 0.0 0.00 0.00 0.00 56 1013.7
20260509095725 14 157 0.0 0.0 0.00 0.00 0.00 55 1013.6
20260509094726 14 157 0.0 0.0 0.00 0.00 0.00 54 1013.6
20260509092725 14 113 0.0 1.6 0.00 0.00 0.00 54 1013.7
20260509091724 14 137 0.0 1.6 0.00 0.00 0.00 54 1013.9
20260509090725 14 180 0.0 0.0 0.00 0.00 0.00 54 1013.8
20260509085725 14 22 0.0 0.0 0.00 0.00 0.00 54 1013.8
20260509084724 14 337 0.0 0.0 0.00 0.00 0.00 55 1013.9